This demonstration page uses our WeatherBlox Daily Observations layout. Learn more.

Left ArrowRight Arrow

40.92945, -100.16068

Hourly Observations for October 2, 2020

Temp ( °F °C ) Dew Point ( °F °C ) Humidity (%) Winds ( mph kmh ) Pressure ( in mb ) Visibility ( mi km ) Precip ( " mm )
12:15 am 00:15 Clear 37 2.6 29 -1.6 74 74 N N/A 30.36 1028 10 16 N/A
12:35 am 00:35 Clear 38 3.1 30 -1.1 74 74 N N/A 30.36 1028 10 16 N/A
12:55 am 00:55 Clear 38 3.5 32 -0.1 78 78 N N/A 30.35 1028 10 16 N/A
1:15 am 01:15 Clear 38 3.5 32 undefined 78 78 N N/A 30.34 1028 10 16 N/A
1:35 am 01:35 Clear 38 3.6 32 -0.1 77 77 N N/A 30.34 1028 10 16 N/A
1:55 am 01:55 Clear 39 3.7 31 -0.3 75 75 N N/A 30.34 1027 10 16 N/A
2:15 am 02:15 Clear 38 3.1 31 -0.5 77 77 N N/A 30.35 1028 10 16 N/A
2:35 am 02:35 Clear 38 3.1 32 undefined 80 80 N N/A 30.35 1028 10 16 N/A
2:55 am 02:55 Clear 37 3 31 -0.5 78 78 NE 3 6 30.35 1028 10 16 N/A
3:15 am 03:15 Clear 37 2.6 31 -0.7 79 79 N N/A 30.34 1027 10 16 N/A
3:35 am 03:35 Clear 37 2.5 31 -0.4 81 81 N N/A 30.34 1028 10 16 N/A
3:55 am 03:55 Clear 37 2.5 31 -0.5 81 81 N N/A 30.32 1027 10 16 N/A
4:15 am 04:15 Clear 36 2 30 -1 81 81 N N/A 30.33 1027 10 16 N/A
4:35 am 04:35 Clear 36 2.1 31 -0.6 83 83 N N/A 30.33 1027 7 11 N/A
4:55 am 04:55 Hazy 35 1.7 31 -0.8 84 84 E 5 7 30.33 1027 5 8 N/A
5:15 am 05:15 Clear 36 2.1 31 -0.5 83 83 N N/A 30.32 1027 10 16 N/A
5:35 am 05:35 Clear 35 1.4 30 -1.2 83 83 SE 3 6 30.32 1027 10 16 N/A
5:55 am 05:55 Clear 35 1.7 30 -1 82 82 ESE 3 6 30.31 1026 10 16 N/A
6:15 am 06:15 Clear 35 1.6 30 -1.1 82 82 E 6 9 30.31 1026 10 16 N/A
6:35 am 06:35 Clear 35 1.5 30 -1.1 83 83 SE 5 7 30.30 1026 10 16 N/A
6:55 am 06:55 Clear 37 2.6 31 -0.5 80 80 SE 3 6 30.30 1026 10 16 N/A
7:15 am 07:15 Clear 33 0.8 30 -1.2 87 87 N N/A 30.32 1027 10 16 N/A
7:35 am 07:35 Clear 34 1 30 -1.1 86 86 E 5 7 30.32 1027 10 16 N/A
7:55 am 07:55 Sunny 34 1.1 30 -0.9 87 87 E 5 7 30.30 1026 10 16 N/A
8:15 am 08:15 Sunny 36 2.3 31 -0.3 83 83 ESE 5 7 30.28 1026 10 16 N/A
8:35 am 08:35 Sunny 38 3.5 32 -0.2 77 77 SE 6 9 30.26 1025 10 16 N/A
8:55 am 08:55 Sunny 40 4.7 32 -0.1 71 71 ESE 6 9 30.25 1024 10 16 N/A
9:15 am 09:15 Sunny 42 5.6 32 undefined 68 68 SE 7 11 30.24 1024 10 16 N/A
9:35 am 09:35 Sunny 44 6.7 32 undefined 63 63 SE 7 11 30.22 1023 10 16 N/A
9:55 am 09:55 Sunny 47 8.1 32 0.2 58 58 SE 6 9 30.21 1023 10 16 N/A
10:15 am 10:15 Sunny 50 9.9 32 0.2 51 51 SE 7 11 30.18 1022 10 16 N/A
10:35 am 10:35 Sunny 53 11.5 33 0.5 47 47 SSE 8 13 30.16 1021 10 16 N/A
10:55 am 10:55 Sunny 56 13.4 32 -0.2 39 39 SSE 12 19 30.13 1020 10 16 N/A
11:15 am 11:15 Sunny 58 14.5 31 -0.8 35 35 S 13 20 30.10 1019 10 16 N/A
11:35 am 11:35 Sunny 60 15.6 31 -0.7 33 33 SSE 10 17 30.08 1019 10 16 N/A
11:55 am 11:55 Sunny 62 16.5 29 -1.6 29 29 SSE 13 20 30.07 1018 10 16 N/A
12:15 pm 12:15 Sunny 63 17.4 29 -1.5 28 28 SSE 12 19 30.05 1018 10 16 N/A
12:35 pm 12:35 Sunny 64 17.9 30 -1.1 28 28 SSE 14 22 30.04 1017 10 16 N/A
12:55 pm 12:55 Sunny 65 18.6 30 -0.9 27 27 SSE 10 17 30.02 1017 10 16 N/A
1:15 pm 13:15 Sunny 66 19 31 -0.6 27 27 S 15 24 30.02 1017 10 16 N/A
1:35 pm 13:35 Sunny 66 18.9 31 -0.6 27 27 S 9 15 30.01 1016 10 16 N/A
1:55 pm 13:55 Sunny 67 19.2 31 -0.5 27 27 S 10 17 29.99 1016 10 16 N/A
2:15 pm 14:15 Sunny 69 20.3 31 -0.7 25 25 SW 14 22 29.97 1015 10 16 N/A
2:35 pm 14:35 Sunny 69 20.5 30 -1 24 24 S 8 13 29.95 1014 10 16 N/A
2:55 pm 14:55 Sunny 70 21.1 30 -0.9 23 23 S 10 17 29.93 1014 10 16 N/A
3:15 pm 15:15 Sunny 71 21.7 31 -0.5 23 23 S 12 19 29.91 1013 10 16 N/A
3:35 pm 15:35 Sunny 71 21.5 31 -0.5 23 23 S 8 13 29.90 1013 10 16 N/A
3:55 pm 15:55 Sunny 71 21.4 32 -0.2 24 24 SSW 8 13 29.89 1012 10 16 N/A
4:15 pm 16:15 Sunny 72 22.4 32 undefined 23 23 S 12 19 29.87 1012 10 16 N/A
4:35 pm 16:35 Sunny 73 22.6 32 undefined 22 22 S 14 22 29.86 1011 10 16 N/A
4:55 pm 16:55 Sunny 72 22 32 undefined 23 23 S 10 17 29.87 1011 10 16 N/A
5:15 pm 17:15 Sunny 72 22 33 0.4 24 24 SSW 8 13 29.87 1011 10 16 N/A
5:35 pm 17:35 Sunny 72 22.1 33 0.3 24 24 S 9 15 29.85 1011 10 16 N/A
5:55 pm 17:55 Sunny 72 22.4 33 0.5 23 23 S 10 17 29.84 1011 10 16 N/A
6:15 pm 18:15 Sunny 72 22 33 0.5 24 24 S 8 13 29.85 1011 10 16 N/A
6:35 pm 18:35 Sunny 71 21.7 33 0.8 25 25 SSE 7 11 29.85 1011 10 16 N/A
6:55 pm 18:55 Sunny 69 20.5 34 1.1 28 28 SSE 8 13 29.86 1011 10 16 N/A
7:15 pm 19:15 Sunny 66 19.1 34 1.3 31 31 SE 6 9 29.88 1012 10 16 N/A
7:35 pm 19:35 Mostly Cloudy 66 19 34 1.3 31 31 SSE 5 7 29.89 1012 10 16 N/A
7:55 pm 19:55 Cloudy 62 16.8 36 2.2 38 38 N N/A 29.92 1013 10 16 N/A
8:15 pm 20:15 Cloudy 62 16.9 37 2.7 39 39 N 3 6 29.92 1013 10 16 N/A
8:35 pm 20:35 Cloudy 62 16.5 37 2.7 40 40 N 8 13 29.93 1014 10 16 N/A
8:55 pm 20:55 Cloudy 63 17.4 36 2.1 36 36 NNE 7 11 29.92 1013 10 16 N/A
9:15 pm 21:15 Cloudy with Haze 58 14.4 42 5.5 55 55 NNE 31 50 30.00 1016 3 5 N/A
9:35 pm 21:35 Mostly Cloudy 56 13.2 42 5.7 61 61 N 23 37 30.03 1017 10 16 N/A
9:55 pm 21:55 Mostly Cloudy with Light Rain 55 12.6 44 6.6 67 67 NNE 23 37 30.02 1017 10 16 N/A
10:15 pm 22:15 Mostly Cloudy 52 11.3 46 7.5 78 78 NE 13 20 30.05 1018 10 16 N/A
10:35 pm 22:35 Mostly Cloudy 52 11.1 45 7.3 78 78 NE 9 15 30.04 1017 10 16 N/A
10:55 pm 22:55 Cloudy 52 11.1 45 7.2 77 77 ENE 7 11 30.05 1018 10 16 N/A
11:15 pm 23:15 Partly Cloudy 51 10.5 45 7 79 79 NNW 5 7 30.08 1019 10 16 N/A
11:35 pm 23:35 Clear 49 9.7 45 7 83 83 N 6 9 30.08 1019 10 16 N/A
11:55 pm 23:55 Clear 48 9.1 44 6.7 85 85 NW 3 6 30.09 1019 10 16 N/A

Powered by AerisWeather